Location: Ailly
(50.0793°N, 1.9944°E)
Time: 21:56:26
(UTC+00:00)

Cosmos 1484 Rocket - Pass Details

Date: 15 January 2026
Orbit: 439 x 466 km, 97.6° (Epoch: 17 February)

Event Time Altitude Azimuth Distance (km) Brightness Sun altitude
Rises 06:47:22 0° 2° (N) 2,453 5.9 -9.0°
Reaches altitude 10° 06:49:40 10° 347° (NNW) 1,581 4.8 -8.7°
Maximum altitude 06:52:23 23° 294° (WNW) 1,014 3.6 -8.3°
Drops below altitude 10° 06:55:05 10° 241° (WSW) 1,583 4.8 -7.9°
Sets 06:57:23 0° 226° (SW) 2,456 5.9 -7.5°
